Hourly Data Report for October 05, 2017

All times are specified in Local Standard Time (LST). Add 1 hour to adjust for Daylight Saving Time where and when it is observed.

SAINT JOHN A
NEW BRUNSWICK

45°18'58.000" N
65°53'24.000" W
108.80 m
8104901
71609
YSJ

Download Data

Hourly Data (October 2017)
Hourly Data Report for October 5, 2017
Temp Definition
°C
Dew Point Temp Definition
°C
Rel Hum Definition
%
Wind Dir Definition
10's deg

Wind Spd Definition
km/h
Visibility Definition
km
Stn Press Definition
kPa
Hmdx Definition


Wind Chill Definition


Weather Definition


TIME
00:00 Legend Double Dagger 13.3 12.8 97 20 26 3.2 99.99     Fog
01:00 Legend Double Dagger 13.4 12.7 96 20 21 4.8 99.92     Fog
02:00 Legend Double Dagger 13.4 12.7 96 22 16 4.8 99.87     Fog
03:00 Legend Double Dagger 13.6 12.5 93 23 13 6.4 99.85     Fog
04:00 Legend Double Dagger 13.2 12.4 95 19 13 6.4 99.78     Fog
05:00 Legend Double Dagger 12.7 12.2 97 21 13 6.4 99.81     Fog
06:00 Legend Double Dagger 11.9 11.6 97 19 9 9.7 99.85     Fog
07:00 Legend Double Dagger 11.2 11.0 99 36 2 24.1 99.92     LegendNANA
08:00 Legend Double Dagger 16.4 14.0 85 31 10 24.1 100.00     Mainly Clear
09:00 Legend Double Dagger 18.8 12.6 67 31 24 24.1 100.05     LegendNANA
10:00 Legend Double Dagger 18.8 10.8 59 32 25 24.1 100.08     LegendNANA
11:00 Legend Double Dagger 19.0 10.6 58 30 21 24.1 100.08     Mainly Clear
12:00 Legend Double Dagger 20.3 10.3 52 30 20 24.1 100.04     LegendNANA
13:00 Legend Double Dagger 21.1 8.1 43 30 23 24.1 99.98     LegendNANA
14:00 Legend Double Dagger 21.2 7.7 41 29 21 24.1 99.95     Mostly Cloudy
15:00 Legend Double Dagger 21.4 7.6 41 28 12 24.1 99.92     LegendNANA
16:00 Legend Double Dagger 21.1 6.7 39 29 11 24.1 99.92     LegendNANA
17:00 Legend Double Dagger 18.2 9.7 57 20 13 24.1 99.96     Cloudy
18:00 Legend Double Dagger 13.5 9.4 76 19 9 24.1 99.98     LegendNANA
19:00 Legend Double Dagger 11.1 8.6 85 36 1 24.1 100.04     LegendNANA
20:00 Legend Double Dagger 7.0 6.1 94 36 1 24.1 100.06     Mostly Cloudy
21:00 Legend Double Dagger 7.3 6.3 93 36 3 24.1 100.08     LegendNANA
22:00 Legend Double Dagger 9.1 6.9 86 18 9 24.1 100.10     LegendNANA
23:00 Legend Double Dagger 10.7 9.3 91 20 9 24.1 100.07     Mostly Cloudy

Notes on Data Quality.

Legend

  • E = Estimated
  • M = Missing
  • NA = Not Available
  • ‡ = Partner data that is not subject to review by the National Climate Archives
Date modified: